PBO Station Position Time Series. Reference Frame : NAM14
Format Version,1.1.1
4-character ID,EOCG
Station name,Emergency_Operat
Begin Date, 2014-07-03
End Date, 2023-06-26
Release Date, 2023-06-27
Reference position, 34.4508477416 North Latitude, -119.7697773924 East Longitude, 42.45962 meters elevation,
Date, North (mm), East (mm), Vertical (mm), North Std. Deviation (mm), East Std. Deviation (mm),              Vertical Std. Deviation (mm), Quality,
2014-07-03,0.00, 0.00, 0.00, 1.97, 1.60, 7.51, repro,
2014-07-04,1.84, -1.63, 0.84, 1.96, 1.57, 7.45, repro,
2014-07-05,0.90, -1.58, -1.95, 1.93, 1.53, 7.24, repro,
2014-07-06,0.46, -1.46, 9.15, 1.97, 1.55, 7.40, repro,
2014-07-07,2.50, -1.69, -3.96, 1.93, 1.53, 7.25, repro,
2014-07-08,1.12, -1.73, 1.60, 1.93, 1.54, 7.33, repro,
2014-07-09,2.04, -0.08, 3.45, 1.93, 1.53, 7.23, repro,
2014-07-10,1.78, -1.46, 6.42, 1.95, 1.56, 7.38, repro,
2014-07-11,-0.28, -0.73, -0.93, 1.92, 1.52, 7.16, repro,
2014-07-12,1.06, -0.55, 7.03, 1.94, 1.53, 7.27, repro,
2014-07-13,0.12, -0.44, -1.64, 1.91, 1.53, 7.28, repro,
2014-07-14,0.26, -0.43, -3.35, 1.92, 1.54, 7.26, repro,
2014-07-15,2.11, 1.07, 7.45, 1.94, 1.55, 7.30, repro,
2014-07-16,1.62, -0.63, 3.45, 1.96, 1.56, 7.43, repro,
2014-07-17,-0.30, -0.96, 7.03, 2.01, 1.58, 7.56, repro,
2014-07-18,1.20, -0.87, 8.30, 1.97, 1.57, 7.40, repro,
2014-07-19,2.57, 0.23, -3.88, 1.92, 1.54, 7.33, repro,
2014-07-20,2.31, -0.19, 14.69, 1.93, 1.55, 7.34, repro,
2014-07-21,3.01, 0.38, 6.92, 2.07, 1.70, 8.10, repro,
2014-07-22,1.90, -0.66, -2.92, 1.98, 1.59, 7.61, repro,
2014-07-23,0.63, 1.09, -5.44, 2.06, 1.74, 7.66, repro,
2014-07-24,2.89, 0.17, 2.07, 2.02, 1.77, 7.65, repro,
2014-07-25,3.48, -0.18, 1.47, 1.95, 1.53, 7.31, repro,
2014-07-26,2.72, 0.44, -4.44, 1.94, 1.54, 7.34, repro,
2014-07-27,1.87, -0.41, 6.38, 2.00, 1.61, 7.53, repro,
2014-07-28,-2.14, -1.33, 7.37, 1.99, 1.54, 7.42, repro,
2014-07-29,1.60, 0.72, 3.95, 1.98, 1.63, 7.45, repro,
2014-07-30,2.12, -0.35, 0.18, 1.96, 1.55, 7.34, repro,
2014-07-31,2.39, 0.12, 2.01, 1.93, 1.53, 7.28, repro,
2014-08-01,2.72, 1.01, -0.44, 1.96, 1.57, 7.40, repro,
2014-08-02,1.76, 0.37, 4.08, 1.99, 1.58, 7.57, repro,
2014-08-03,-0.30, -0.72, 3.16, 1.99, 1.60, 7.56, repro,
2014-08-04,2.49, 1.31, 6.33, 1.96, 1.55, 7.41, repro,
2014-08-05,2.68, 1.02, -2.40, 2.02, 1.66, 7.82, repro,
2014-08-06,2.04, 0.82, 0.64, 1.94, 1.52, 7.30, repro,
2014-08-07,2.09, 1.39, -3.41, 1.98, 1.57, 7.45, repro,
2014-08-08,1.48, -0.26, 2.09, 2.00, 1.60, 7.54, repro,
2014-08-09,0.67, 1.49, -5.43, 1.96, 1.56, 7.46, repro,
2014-08-10,1.40, 1.81, -0.67, 1.94, 1.53, 7.29, repro,
2014-08-11,3.34, 1.40, -0.62, 1.95, 1.52, 7.29, repro,
2014-08-12,3.86, -0.08, -0.56, 1.97, 1.58, 7.48, repro,
2014-08-13,3.12, 0.61, -1.87, 1.94, 1.52, 7.28, repro,
2014-08-14,3.78, 0.65, 3.72, 2.04, 1.56, 7.66, repro,
2014-08-15,2.94, 0.89, 5.09, 2.00, 1.60, 7.54, repro,
2014-08-16,2.28, 1.61, 0.23, 1.93, 1.53, 7.24, repro,
2014-08-17,4.18, 0.89, -2.72, 1.96, 1.54, 7.36, repro,
2014-08-18,3.62, -0.30, -5.36, 2.02, 1.58, 7.65, repro,
2014-08-19,1.82, 0.15, -2.49, 1.99, 1.57, 7.51, repro,
2014-08-20,1.96, 1.51, -3.19, 2.07, 1.62, 7.86, repro,
2014-08-21,4.77, 2.99, 5.70, 2.00, 1.60, 7.56, repro,
2014-08-22,2.89, 0.77, 0.83, 2.01, 1.60, 7.57, repro,
2014-08-23,4.20, 1.99, -4.89, 1.98, 1.57, 7.49, repro,
2014-08-24,2.35, 1.03, -4.45, 1.98, 1.57, 7.49, repro,
2014-08-25,1.72, 0.96, 3.46, 1.99, 1.61, 7.57, repro,
2014-08-26,3.05, 1.61, -8.05, 1.99, 1.61, 7.54, repro,
2014-08-27,1.80, 1.19, -1.32, 2.03, 1.80, 7.78, repro,
2014-08-28,5.39, 0.61, -3.74, 2.01, 1.76, 7.68, repro,
2014-08-29,2.55, 3.16, 4.36, 1.99, 1.59, 7.47, repro,
2014-08-30,3.03, 2.68, 6.95, 1.97, 1.58, 7.48, repro,
2014-08-31,0.91, 4.70, 10.35, 1.99, 1.59, 7.62, repro,
2014-09-01,4.13, 0.56, 5.44, 1.97, 1.57, 7.47, repro,
2014-09-02,4.22, 1.78, -4.43, 1.99, 1.60, 7.47, repro,
2014-09-03,3.50, 2.43, -2.67, 2.02, 1.60, 7.62, repro,
2014-09-04,2.79, 2.55, -1.65, 1.99, 1.57, 7.49, repro,
2014-09-05,1.74, 1.61, -2.31, 2.00, 1.59, 7.60, repro,
2014-09-06,2.31, 2.79, -3.63, 1.97, 1.57, 7.49, repro,
2014-09-07,3.47, 1.71, -5.29, 2.02, 1.72, 7.62, repro,
2014-09-08,4.31, 1.71, -6.29, 2.00, 1.59, 7.63, repro,
2014-09-09,2.66, 3.12, -5.85, 2.06, 1.75, 7.87, repro,
2014-09-10,3.79, 3.63, -1.95, 2.05, 1.76, 7.81, repro,
2014-09-11,2.96, 4.03, -7.77, 2.03, 1.63, 7.80, repro,
2014-09-12,3.03, 2.07, -7.98, 1.92, 1.58, 7.31, repro,
2014-09-13,1.70, 2.50, -1.55, 1.96, 1.67, 7.45, repro,
2014-09-14,4.17, 1.40, 9.01, 1.97, 1.66, 7.49, repro,
2014-09-15,4.43, 2.65, -1.81, 1.98, 1.76, 7.59, repro,
2014-09-16,4.73, 0.92, -0.97, 1.96, 1.74, 7.52, repro,
2014-09-17,2.67, 2.40, -0.41, 1.99, 1.76, 7.70, repro,
2014-09-18,2.09, 3.07, 5.82, 1.94, 1.65, 7.57, repro,
2014-09-19,2.92, 3.12, -1.53, 1.96, 1.59, 7.47, repro,
2014-09-20,3.12, 2.52, -5.45, 1.94, 1.59, 7.40, repro,
2014-09-21,2.44, 1.24, -3.89, 1.96, 1.60, 7.43, repro,
2014-09-22,4.29, 3.34, -2.90, 1.91, 1.56, 7.25, repro,
2014-09-23,1.55, 2.32, 0.02, 1.97, 1.62, 7.53, repro,
2014-09-24,3.38, 2.67, -1.88, 1.97, 1.70, 7.60, repro,
2014-09-25,3.68, 2.74, -0.57, 1.98, 1.72, 7.69, repro,
2014-09-26,4.38, 3.01, -15.67, 1.95, 1.69, 7.57, repro,
2014-09-27,2.72, 1.30, -5.31, 1.94, 1.61, 7.46, repro,
2014-09-28,5.43, 2.77, -2.64, 1.98, 1.64, 7.62, repro,
2014-09-29,3.62, 2.36, -2.14, 1.95, 1.66, 7.60, repro,
2014-09-30,5.10, 2.88, -5.28, 1.95, 1.72, 7.59, repro,
2014-10-01,3.37, 1.63, 1.77, 1.97, 1.62, 7.52, repro,
2014-10-02,2.61, 1.62, -3.25, 2.03, 1.75, 7.82, repro,
2014-10-03,3.95, 1.81, -5.75, 2.00, 1.81, 7.87, repro,
2014-10-04,2.32, 4.03, -3.07, 2.03, 1.81, 7.99, repro,
2014-10-05,3.76, 4.20, -5.18, 1.96, 1.77, 7.65, repro,
2014-10-06,5.62, 1.50, -6.63, 1.97, 1.74, 7.67, repro,
2014-10-07,3.45, 2.59, -4.72, 1.99, 1.79, 7.84, repro,
2014-10-08,2.50, 2.72, -0.88, 1.99, 1.75, 7.78, repro,
2014-10-09,2.27, 2.35, -4.25, 1.93, 1.63, 7.44, repro,
2014-10-10,3.68, 2.53, -8.11, 1.96, 1.61, 7.50, repro,
2014-10-11,4.14, 2.08, -8.28, 1.97, 1.63, 7.55, repro,
2014-10-12,5.75, 3.95, -7.10, 1.96, 1.64, 7.56, repro,
2014-10-13,2.53, 2.38, -5.90, 1.98, 1.70, 7.78, repro,
2014-10-14,2.72, 2.02, -2.64, 1.91, 1.58, 7.29, repro,
2014-10-15,3.09, 1.78, -4.30, 1.94, 1.59, 7.41, repro,
2014-10-16,3.03, 2.28, -8.89, 1.93, 1.58, 7.34, repro,
2014-10-17,1.89, 1.82, -1.55, 1.98, 1.64, 7.64, repro,
2014-10-18,1.46, 3.20, -6.66, 1.96, 1.61, 7.48, repro,
2014-10-19,1.85, 2.26, 3.10, 2.00, 1.61, 7.40, repro,
2014-10-20,2.08, 2.18, -3.41, 1.97, 1.61, 7.48, repro,
2014-10-21,3.23, 2.76, -10.00, 1.96, 1.62, 7.40, repro,
2014-10-22,4.03, 4.03, -8.41, 2.02, 1.73, 7.75, repro,
2014-10-23,3.35, 2.34, 0.97, 1.98, 1.71, 7.91, repro,
2014-10-24,1.73, 3.60, -1.82, 1.97, 1.71, 7.60, repro,
2014-10-25,1.07, 2.81, -3.58, 1.91, 1.59, 7.36, repro,
2014-10-26,2.24, 3.46, -4.46, 1.96, 1.62, 7.44, repro,
2014-10-27,3.40, 3.60, -2.47, 1.98, 1.68, 7.85, repro,
2014-10-28,2.94, 3.44, 1.08, 2.10, 1.77, 8.21, repro,
2014-10-29,2.29, 2.26, 0.66, 1.93, 1.69, 7.53, repro,
2014-10-30,1.26, 2.99, -5.06, 1.88, 1.57, 7.24, repro,
2014-10-31,1.72, 3.57, -5.63, 1.88, 1.57, 7.21, repro,
2014-11-01,0.02, 2.63, 11.30, 1.93, 1.59, 7.39, repro,
2014-11-02,-0.18, 3.53, 13.45, 1.91, 1.59, 7.35, repro,
2014-11-03,2.76, 3.99, 2.31, 1.91, 1.59, 7.42, repro,
2014-11-04,1.93, 3.97, 2.78, 1.89, 1.59, 7.34, repro,
2014-11-05,2.12, 3.82, -6.34, 1.90, 1.68, 7.36, repro,
2014-11-06,3.31, 4.08, -7.98, 1.96, 1.74, 7.71, repro,
2014-11-07,3.02, 5.28, -1.66, 2.02, 1.79, 8.01, repro,
2014-11-08,1.67, 3.30, 2.05, 1.97, 1.75, 7.81, repro,
2014-11-09,2.46, 4.04, 11.02, 1.88, 1.58, 7.27, repro,
2014-11-10,0.27, 3.87, 8.89, 1.88, 1.58, 7.29, repro,
2014-11-11,3.10, 4.49, -1.49, 1.89, 1.59, 7.30, repro,
2014-11-12,1.07, 4.98, -7.43, 1.91, 1.59, 7.38, repro,
2014-11-13,2.71, 4.74, -1.79, 1.93, 1.61, 7.52, repro,
2014-11-14,2.34, 2.74, 4.89, 1.91, 1.60, 7.44, repro,
2014-11-15,1.50, 5.08, 3.05, 1.93, 1.60, 7.47, repro,
2014-11-16,-0.83, 3.47, 9.47, 1.90, 1.61, 7.43, repro,
2014-11-17,1.70, 5.61, -8.49, 1.97, 1.66, 7.72, repro,
2014-11-18,1.25, 4.02, 1.48, 1.99, 1.70, 7.83, repro,
2014-11-19,3.09, 6.06, 3.08, 1.95, 1.66, 7.64, repro,
2014-11-20,3.02, 3.85, -8.34, 1.96, 1.62, 7.67, repro,
2014-11-21,-3.18, 6.56, 19.65, 2.08, 1.68, 8.09, repro,
2014-11-22,2.63, 4.77, 1.26, 2.06, 1.71, 8.19, repro,
2014-11-23,6.40, 6.68, 13.46, 1.98, 1.63, 7.81, repro,
2014-11-24,1.81, 5.03, -4.67, 2.10, 1.89, 8.55, repro,
2014-11-25,2.92, 4.41, -4.10, 2.05, 1.80, 8.24, repro,
2014-11-26,1.81, 3.59, -5.23, 2.03, 1.76, 8.09, repro,
2014-11-27,2.59, 4.94, 2.15, 1.99, 1.79, 7.99, repro,
2014-11-28,2.50, 5.26, -6.51, 2.02, 1.85, 8.14, repro,
2014-11-29,2.79, 5.05, 1.26, 1.98, 1.68, 7.77, repro,
2014-11-30,3.33, 4.73, 0.26, 1.98, 1.67, 7.74, repro,
2014-12-01,2.15, 4.46, 2.87, 1.95, 1.62, 7.46, repro,
2014-12-02,2.48, 4.50, 2.85, 1.93, 1.63, 7.58, repro,
2014-12-03,2.40, 5.54, -8.98, 1.92, 1.63, 7.51, repro,
2014-12-04,1.91, 4.66, -8.27, 1.93, 1.61, 7.36, repro,
2014-12-05,0.23, 6.09, -0.20, 1.92, 1.61, 7.39, repro,
2014-12-06,0.87, 4.56, -11.13, 1.92, 1.59, 7.33, repro,
2014-12-07,-0.90, 5.73, -3.04, 1.87, 1.57, 7.23, repro,
2014-12-08,2.42, 5.26, -5.84, 1.87, 1.60, 7.30, repro,
2014-12-09,3.13, 5.16, -10.80, 1.86, 1.59, 7.23, repro,
2014-12-10,3.90, 3.79, -5.22, 1.90, 1.65, 7.48, repro,
2014-12-11,1.73, 4.98, 0.78, 1.88, 1.64, 7.42, repro,
2014-12-12,1.21, 2.66, 0.65, 1.88, 1.61, 7.30, repro,
2014-12-13,7.02, 2.84, 13.94, 1.86, 1.58, 7.26, repro,
2014-12-14,5.90, 2.93, -3.25, 1.82, 1.56, 7.09, repro,
2014-12-15,4.04, 1.34, -5.82, 1.87, 1.60, 7.22, repro,
2014-12-16,5.03, 2.35, -3.02, 1.94, 1.62, 7.41, repro,
2014-12-17,1.56, -0.79, 18.28, 1.91, 1.59, 7.33, repro,
2014-12-18,2.83, 1.93, 6.54, 1.83, 1.56, 7.14, repro,
2014-12-19,3.40, 2.73, -2.32, 1.87, 1.61, 7.27, repro,
2014-12-20,1.57, 3.07, -9.84, 1.83, 1.55, 7.13, repro,
2014-12-21,-1.31, 7.53, -11.58, 1.86, 1.59, 7.33, repro,
2014-12-22,1.69, 2.24, 19.17, 1.90, 1.71, 7.50, repro,
2014-12-23,0.88, 3.61, 1.45, 1.88, 1.70, 7.33, repro,
2014-12-24,3.02, 2.00, -5.49, 1.82, 1.54, 7.07, repro,
2014-12-25,4.43, 1.36, 5.09, 1.86, 1.63, 7.38, repro,
2014-12-26,5.54, 2.09, -6.41, 1.84, 1.54, 7.09, repro,
2014-12-27,2.79, 1.97, 2.79, 1.85, 1.57, 7.18, repro,
2014-12-28,2.12, 1.88, 1.01, 1.83, 1.53, 7.04, repro,
2014-12-29,3.75, 2.54, -5.02, 1.86, 1.62, 7.37, repro,
2014-12-30,0.47, 2.37, -5.33, 1.88, 1.60, 7.25, repro,
2014-12-31,0.11, 1.36, 5.79, 1.84, 1.56, 7.18, repro,
2015-01-01,2.42, 1.25, 2.19, 1.85, 1.55, 7.19, repro,
2015-01-02,2.47, 1.93, 2.63, 1.84, 1.54, 7.13, repro,
2015-01-03,1.30, 2.40, 0.33, 1.82, 1.53, 7.07, repro,
2015-01-04,0.99, 2.63, -3.81, 1.86, 1.55, 7.18, repro,
2015-01-05,-3.11, 2.08, -22.75, 1.88, 1.60, 7.20, supp6,
2015-01-06,1.19, 1.84, -7.74, 1.91, 1.70, 7.32, repro,
2015-01-07,0.84, 2.79, 1.73, 1.96, 1.81, 7.58, repro,
2015-01-08,1.70, 1.56, -3.27, 2.08, 1.80, 8.23, repro,
2015-01-09,2.64, 1.38, -6.32, 1.87, 1.61, 7.22, repro,
2015-01-10,1.26, 0.47, 0.26, 1.86, 1.58, 7.21, repro,
2015-01-11,1.58, -3.58, 6.84, 1.87, 1.57, 7.20, repro,
2015-01-12,2.26, -0.32, -3.35, 1.86, 1.56, 7.18, repro,
2015-01-13,1.67, 1.69, -0.39, 1.86, 1.57, 7.19, repro,
2015-01-14,5.15, 1.03, -3.11, 1.84, 1.57, 7.17, repro,
2015-01-15,4.62, 0.21, 3.49, 1.89, 1.62, 7.33, repro,
2015-01-16,2.90, 0.75, 1.68, 1.93, 1.59, 7.43, repro,
2015-01-17,4.63, 0.31, -0.14, 1.96, 1.64, 7.49, repro,
2015-01-18,3.89, 1.42, -6.05, 1.86, 1.56, 7.21, repro,
2015-01-19,3.53, 1.74, -1.64, 1.85, 1.58, 7.25, repro,
2015-01-20,2.13, 1.33, 1.81, 1.86, 1.57, 7.20, repro,
2015-01-21,2.28, 0.55, 2.91, 1.88, 1.58, 7.28, repro,
2015-01-22,4.13, 0.43, 0.11, 1.87, 1.57, 7.24, repro,
2015-01-23,3.61, 0.42, 0.46, 1.95, 1.63, 7.55, repro,
2015-01-24,2.82, -0.05, 7.94, 1.97, 1.75, 7.60, repro,
2015-01-25,2.56, -0.14, 1.48, 1.91, 1.69, 7.32, repro,
2015-01-26,2.40, 0.01, 2.93, 1.88, 1.58, 7.29, repro,
2015-01-27,2.29, -0.33, -3.82, 1.95, 1.59, 7.38, repro,
2015-01-28,2.98, 0.08, -2.66, 1.90, 1.56, 7.27, repro,
2015-01-29,1.53, 0.71, -1.92, 1.92, 1.57, 7.32, repro,
2015-01-30,2.76, -0.29, -0.60, 1.91, 1.57, 7.29, repro,
2015-01-31,2.46, -0.28, -1.56, 1.87, 1.55, 7.23, repro,
2015-02-01,2.40, 0.50, -2.01, 1.89, 1.57, 7.26, repro,
2015-02-02,3.43, 0.62, 1.18, 1.95, 1.61, 7.50, repro,
2015-02-03,3.13, 1.01, 0.81, 1.91, 1.57, 7.32, repro,
2015-02-04,1.44, 1.36, 6.87, 1.85, 1.57, 7.13, repro,
2015-02-05,3.35, 0.34, 3.22, 1.91, 1.58, 7.25, repro,
2015-02-06,4.35, -0.01, 3.65, 1.96, 1.61, 7.42, repro,
2015-02-07,2.18, 1.61, 3.61, 1.88, 1.58, 7.26, repro,
2015-02-08,3.13, 0.97, 1.87, 1.88, 1.57, 7.25, repro,
2015-02-09,-0.08, 0.24, 5.71, 2.05, 1.75, 8.19, repro,
2015-02-10,2.15, 2.56, -1.11, 1.93, 1.62, 7.36, repro,
2015-02-11,3.20, 1.26, 0.96, 2.06, 1.73, 7.72, repro,
2015-02-12,2.23, 1.47, -3.85, 1.93, 1.69, 7.42, repro,
2015-02-13,3.27, 1.50, -8.12, 1.97, 1.78, 7.52, repro,
2015-02-14,1.99, 3.15, -0.67, 1.90, 1.70, 7.36, repro,
2015-02-15,2.83, 2.43, 0.24, 1.88, 1.58, 7.18, repro,
2015-02-16,2.17, 2.31, 1.37, 1.88, 1.57, 7.20, repro,
2015-02-17,2.44, 1.94, 2.08, 1.90, 1.57, 7.24, repro,
2015-02-18,2.15, 2.89, -7.36, 1.88, 1.57, 7.25, repro,
2015-02-19,0.92, 2.27, -2.31, 1.88, 1.60, 7.31, repro,
2015-02-20,2.01, 3.30, 3.44, 1.88, 1.56, 7.25, repro,
2015-02-21,1.89, 2.50, 2.88, 1.89, 1.56, 7.21, repro,
2015-02-22,2.03, 1.09, -0.05, 1.88, 1.55, 7.20, repro,
2015-02-23,2.85, 0.75, 7.06, 1.89, 1.57, 7.28, repro,
2015-02-24,-0.13, 1.75, -2.91, 1.87, 1.56, 7.22, repro,
2015-02-25,3.41, 3.94, -3.70, 1.87, 1.56, 7.22, repro,
2015-02-26,3.46, 2.59, 5.04, 1.96, 1.72, 7.80, repro,
2015-02-27,-7.60, 4.38, 2.43, 1.91, 1.57, 7.35, repro,
2015-02-28,-5.27, 3.21, 14.56, 1.90, 1.58, 7.35, repro,
2015-03-01,0.33, 3.00, -0.49, 1.88, 1.57, 7.20, repro,
2015-03-02,0.59, 2.34, 4.19, 1.88, 1.56, 7.25, repro,
2015-03-03,1.76, 1.87, 8.02, 1.90, 1.59, 7.40, repro,
2015-03-04,3.86, 2.06, 2.19, 1.90, 1.56, 7.20, repro,
2015-03-05,2.65, 2.68, -5.33, 1.95, 1.57, 7.50, repro,
2015-03-06,1.87, 2.07, -7.81, 2.05, 1.72, 7.86, repro,
2015-03-07,0.60, 2.49, -2.25, 1.92, 1.78, 7.44, repro,
2015-03-08,2.21, 1.34, 3.29, 1.92, 1.60, 7.36, repro,
2015-03-09,2.30, 1.90, 2.82, 1.90, 1.58, 7.34, repro,
2015-03-10,2.46, 1.45, -4.76, 1.91, 1.57, 7.31, repro,
2015-03-11,2.46, 3.00, -5.57, 1.91, 1.58, 7.33, repro,
2015-03-12,-0.12, 0.36, 2.10, 1.93, 1.72, 7.63, repro,
2015-03-13,1.29, 1.38, 2.74, 1.93, 1.77, 7.50, repro,
2015-03-14,3.58, 2.91, -1.50, 1.95, 1.78, 7.59, repro,
2015-03-15,2.86, 2.68, -2.67, 1.92, 1.69, 7.46, repro,
2015-03-16,1.96, 2.96, -11.03, 1.93, 1.69, 7.40, repro,
2015-03-17,1.92, 3.46, -3.97, 1.90, 1.59, 7.31, repro,
2015-03-18,1.87, 3.03, -1.12, 1.90, 1.62, 7.43, repro,
2015-03-19,1.37, 1.41, 0.19, 1.90, 1.58, 7.30, repro,
2015-03-20,0.61, 1.03, -4.25, 1.94, 1.59, 7.37, repro,
2015-03-21,2.10, 1.79, -5.53, 1.92, 1.60, 7.40, repro,
2015-03-22,2.47, 2.06, -6.95, 1.90, 1.59, 7.26, repro,
2015-03-23,2.13, 1.86, 8.39, 1.90, 1.60, 7.34, repro,
2015-03-24,-2.71, 4.27, 17.63, 1.96, 1.79, 7.56, repro,
2015-03-25,2.40, 1.92, 7.59, 1.94, 1.73, 7.48, repro,
2015-03-26,1.91, 1.74, -6.43, 1.95, 1.78, 7.50, repro,
2015-03-27,2.48, 2.78, -4.64, 2.00, 1.80, 7.68, repro,
2015-03-28,2.72, 2.53, -6.24, 1.95, 1.59, 7.46, repro,
2015-03-29,1.38, 3.61, 0.84, 2.02, 1.60, 7.64, repro,
2015-03-30,2.71, 1.85, 0.74, 2.00, 1.60, 7.53, repro,
2015-03-31,0.81, 3.17, -8.08, 2.03, 1.63, 7.75, repro,
2015-04-01,1.35, 2.07, 9.56, 1.97, 1.64, 7.61, repro,
2015-04-02,0.85, 2.22, 3.23, 1.89, 1.57, 7.28, repro,
2015-04-03,3.07, 2.80, -7.30, 1.93, 1.75, 7.47, repro,
2015-04-04,2.51, 1.01, -1.03, 1.91, 1.61, 7.43, repro,
2015-04-05,1.99, 2.54, -0.95, 1.92, 1.62, 7.50, repro,
2015-04-06,0.46, 0.60, 3.11, 1.89, 1.59, 7.37, repro,
2015-04-07,2.37, 0.16, 1.03, 1.89, 1.57, 7.27, repro,
2015-04-08,-2.87, 1.88, 13.26, 1.94, 1.63, 7.49, repro,
2015-04-09,1.62, 0.21, 5.84, 1.88, 1.55, 7.18, repro,
2015-04-10,2.36, 0.97, 1.63, 1.93, 1.59, 7.38, repro,
2015-04-11,1.24, 2.08, 0.26, 1.93, 1.61, 7.49, repro,
2015-04-12,3.32, 2.52, 8.27, 1.87, 1.57, 7.34, repro,
2015-04-13,3.85, 1.28, -3.22, 1.92, 1.59, 7.38, repro,
2015-04-14,2.71, 1.97, -6.66, 1.93, 1.59, 7.42, repro,
2015-04-15,3.93, 1.29, 10.34, 1.98, 1.68, 7.78, repro,
2015-04-16,2.23, 2.05, -4.39, 1.96, 1.64, 7.68, repro,
2015-04-17,2.20, 2.78, 1.58, 1.93, 1.64, 7.58, repro,
2015-04-18,2.08, 1.70, 4.44, 1.92, 1.60, 7.48, repro,
2015-04-19,2.52, 1.96, -3.20, 1.92, 1.58, 7.38, repro,
2015-04-20,0.85, 1.08, 3.82, 1.95, 1.59, 7.45, repro,
2015-04-21,2.87, 1.63, 8.60, 1.94, 1.58, 7.36, repro,
2015-04-22,2.05, 1.86, 2.28, 1.94, 1.57, 7.37, repro,
2015-04-23,1.63, 1.57, -2.77, 1.92, 1.57, 7.36, repro,
2015-04-24,3.23, 2.83, 0.60, 1.90, 1.56, 7.31, repro,
2015-04-25,-0.44, 1.62, 11.13, 1.92, 1.55, 7.32, repro,
2015-04-26,13.78, 5.62, -1.76, 1.94, 1.56, 7.45, repro,
2015-04-27,5.32, 2.86, -1.06, 1.92, 1.59, 7.49, repro,
2015-04-28,2.49, 1.99, -5.06, 1.90, 1.57, 7.32, repro,
2015-04-29,3.30, 2.63, -2.48, 1.92, 1.62, 7.38, repro,
2015-04-30,3.90, 1.99, -1.81, 1.93, 1.62, 7.50, repro,
2015-05-01,2.92, 1.59, 1.94, 1.93, 1.58, 7.41, repro,
2015-05-02,3.83, 3.41, -4.30, 1.89, 1.53, 7.20, repro,
2015-05-03,2.15, 2.47, -1.61, 1.90, 1.53, 7.21, repro,
2015-05-04,2.98, 1.89, -1.53, 1.91, 1.55, 7.33, repro,
2015-05-05,4.01, 2.92, -8.84, 1.90, 1.54, 7.30, repro,
2015-05-06,3.97, 2.41, -1.10, 1.90, 1.54, 7.30, repro,
2015-05-07,4.14, 2.68, 0.66, 1.92, 1.58, 7.40, repro,
2015-05-08,2.23, 5.91, 2.79, 1.91, 1.54, 7.29, repro,
2015-05-09,2.73, 3.88, -12.54, 1.90, 1.53, 7.22, repro,
2015-05-10,1.72, 1.29, -0.63, 1.89, 1.53, 7.22, repro,
2015-05-11,4.18, 1.81, -5.92, 1.89, 1.54, 7.27, repro,
2015-05-12,3.10, 2.51, -4.28, 1.96, 1.54, 7.49, repro,
2015-05-13,3.87, 2.32, -3.47, 1.96, 1.56, 7.52, repro,
2015-05-14,3.14, 0.92, -8.30, 1.91, 1.54, 7.34, repro,
2015-05-15,2.39, 2.13, -2.02, 1.89, 1.53, 7.25, repro,
2015-05-16,0.33, 1.35, 15.68, 1.90, 1.54, 7.27, repro,
2015-05-17,3.43, 1.50, 1.13, 1.89, 1.54, 7.25, repro,
2015-05-18,3.48, 1.87, -3.59, 1.90, 1.54, 7.30, repro,
2015-05-19,4.29, 3.92, -9.89, 1.97, 1.57, 7.55, repro,
2015-05-20,3.80, 3.95, -4.66, 1.90, 1.54, 7.29, repro,
2015-05-21,1.97, 2.45, -7.09, 1.88, 1.53, 7.17, repro,
2015-05-22,1.82, 1.33, 3.54, 1.89, 1.54, 7.22, repro,
2015-05-23,5.13, 2.21, -9.93, 1.89, 1.55, 7.23, repro,
2015-05-24,3.63, 3.16, -7.74, 1.90, 1.54, 7.25, repro,
2015-05-25,2.12, 2.38, -5.41, 1.91, 1.55, 7.28, repro,
2015-05-26,2.91, 1.21, -5.28, 1.89, 1.54, 7.23, repro,
2015-05-27,1.79, 2.09, -0.60, 1.88, 1.53, 7.15, repro,
2015-05-28,2.64, 2.26, -1.69, 1.93, 1.56, 7.44, repro,
2015-05-29,1.73, 3.93, -3.65, 1.89, 1.55, 7.22, repro,
2015-05-30,1.11, 3.95, -4.56, 1.91, 1.58, 7.37, repro,
2015-05-31,1.89, 2.60, -6.11, 1.91, 1.55, 7.28, repro,
2015-06-01,2.73, 2.70, -7.15, 1.87, 1.53, 7.14, repro,
2015-06-02,2.13, 1.77, -5.19, 1.88, 1.54, 7.17, repro,
2015-06-03,2.90, 2.88, -8.90, 1.86, 1.53, 7.09, repro,
2015-06-04,-0.17, 2.27, -1.68, 1.89, 1.55, 7.25, repro,
2015-06-05,2.62, 2.13, -9.18, 1.91, 1.60, 7.32, repro,
2015-06-06,0.71, 2.44, -6.45, 1.89, 1.55, 7.20, repro,
2015-06-07,3.01, 2.27, 1.41, 1.88, 1.54, 7.11, repro,
2015-06-08,3.62, 0.66, -6.01, 1.88, 1.55, 7.15, repro,
2015-06-09,1.69, 3.12, 10.13, 1.88, 1.54, 7.15, repro,
2015-06-10,1.36, 3.38, -0.63, 1.89, 1.55, 7.20, repro,
2015-06-11,0.72, 2.39, -4.88, 2.00, 1.60, 7.42, repro,
2015-06-12,1.76, 3.79, -6.93, 1.92, 1.58, 7.32, repro,
2015-06-13,0.43, 3.12, -1.45, 1.88, 1.54, 7.17, repro,
2015-06-14,2.36, 4.11, -0.36, 1.87, 1.53, 7.08, repro,
2015-06-15,2.33, 5.90, -2.48, 1.91, 1.58, 7.28, repro,
2015-06-16,2.87, 3.59, -9.36, 1.89, 1.56, 7.22, repro,
2015-06-17,2.28, 3.98, -8.15, 1.92, 1.62, 7.36, repro,
2015-06-18,2.01, 3.79, -1.09, 1.93, 1.63, 7.41, repro,
2015-06-19,3.41, 3.32, 0.21, 1.89, 1.61, 7.30, repro,
2015-06-20,3.17, 3.66, -0.63, 1.89, 1.55, 7.14, repro,
2015-06-21,3.58, 3.68, -3.47, 1.88, 1.56, 7.23, repro,
2015-06-22,3.18, 4.20, -3.05, 1.89, 1.58, 7.23, repro,
2015-06-23,0.56, 3.90, 3.39, 1.98, 1.60, 7.46, repro,
2015-06-24,1.88, 3.62, -7.70, 1.94, 1.60, 7.35, repro,
2015-06-25,2.67, 2.66, -1.18, 1.90, 1.59, 7.22, repro,
2015-06-26,1.42, 3.58, 2.98, 1.94, 1.55, 7.22, repro,
2015-06-27,2.36, 4.13, -3.17, 1.88, 1.55, 7.12, repro,
2015-06-28,0.24, 3.97, -0.92, 1.90, 1.58, 7.21, repro,
2015-06-29,2.89, 4.00, -6.42, 1.88, 1.56, 7.15, repro,
2015-06-30,1.87, 3.48, 4.27, 1.95, 1.59, 7.43, repro,
2015-07-01,1.55, 4.25, 0.91, 1.93, 1.57, 7.37, repro,
2015-07-02,2.02, 5.07, -2.56, 1.95, 1.58, 7.42, repro,
2015-07-03,3.18, 4.06, -2.42, 1.89, 1.55, 7.18, repro,
2015-07-04,1.43, 4.94, -2.04, 1.87, 1.55, 7.11, repro,
2015-07-05,-20.84, 0.50, 18.55, 1.89, 1.56, 7.15, repro,
2015-07-06,-20.34, -0.42, 22.53, 1.88, 1.55, 7.14, repro,
2015-07-07,-20.44, -1.54, 16.97, 1.88, 1.56, 7.16, repro,
2015-07-08,-19.52, -0.77, 14.48, 1.88, 1.55, 7.11, repro,
2015-07-09,-19.20, 0.11, 21.87, 1.90, 1.57, 7.20, repro,
2015-07-10,-20.37, -0.29, 25.10, 1.91, 1.61, 7.26, repro,
2015-07-11,-19.14, -0.61, 18.54, 1.90, 1.60, 7.15, repro,
2015-07-12,-19.16, 0.77, 22.45, 1.90, 1.57, 7.19, repro,
2015-07-13,-20.46, 0.94, 14.80, 1.90, 1.56, 7.17, repro,
2015-07-14,-19.05, -0.74, 18.67, 1.88, 1.55, 7.09, repro,
2015-07-15,-21.31, 0.85, 19.04, 1.87, 1.55, 7.12, repro,
2015-07-16,-20.46, 0.33, 15.99, 1.91, 1.60, 7.25, repro,
2015-07-17,-21.71, 0.35, 19.39, 1.88, 1.55, 7.10, repro,
2015-07-18,-18.50, 0.67, 8.51, 1.91, 1.56, 7.20, repro,
2015-07-19,-20.03, 1.86, 24.48, 1.92, 1.67, 7.36, repro,
2015-07-20,-20.00, 0.58, 20.23, 1.89, 1.56, 7.15, repro,
2015-07-21,-23.14, 0.96, 21.68, 1.91, 1.57, 7.26, repro,
2015-07-22,-20.76, 0.10, 21.25, 1.89, 1.55, 7.11, repro,
2015-07-23,-20.76, -0.84, 32.13, 1.88, 1.55, 7.10, repro,
2015-07-24,-19.13, 1.09, 22.01, 1.89, 1.57, 7.16, repro,
2015-07-25,-20.61, 1.43, 27.80, 1.89, 1.57, 7.16, repro,
2015-07-26,-20.24, -0.42, 19.60, 1.89, 1.55, 7.12, repro,
2015-07-27,-20.10, 0.68, 15.66, 1.89, 1.54, 7.10, repro,
2015-07-28,-22.43, -0.10, 30.36, 1.97, 1.59, 7.47, repro,
2015-07-29,-20.53, 1.78, 9.39, 2.00, 1.61, 7.47, repro,
2015-07-30,-20.25, 2.33, 18.70, 1.89, 1.57, 7.17, repro,
2015-07-31,-20.46, 1.75, 17.99, 1.90, 1.56, 7.19, repro,
2015-08-01,-19.67, 2.06, 16.18, 1.89, 1.56, 7.17, repro,
2015-08-02,-20.76, 0.47, 13.44, 1.88, 1.54, 7.06, repro,
2015-08-03,-20.93, -0.16, 22.02, 1.90, 1.58, 7.21, repro,
2015-08-04,-20.82, 0.50, 26.41, 1.94, 1.63, 7.39, repro,
2015-08-05,-20.45, 1.63, 13.56, 1.92, 1.61, 7.35, repro,
2015-08-06,-21.25, 0.91, 16.02, 1.94, 1.61, 7.47, repro,
2015-08-07,-22.45, 0.86, 25.00, 1.93, 1.60, 7.31, repro,
2015-08-08,-20.40, 0.78, 34.60, 1.96, 1.66, 7.48, repro,
2015-08-09,-20.13, 0.21, 24.63, 2.02, 1.67, 7.59, repro,
2015-08-10,-22.52, 0.47, 21.83, 1.92, 1.60, 7.34, repro,
2015-08-11,-19.49, 0.22, 17.06, 1.92, 1.60, 7.35, repro,
2015-08-12,-19.93, 1.42, 16.01, 1.88, 1.58, 7.13, repro,
2015-08-13,-21.64, 0.77, 23.45, 1.95, 1.71, 7.33, repro,
2015-08-14,-19.93, -0.90, 21.67, 1.93, 1.70, 7.25, repro,
2015-08-15,-21.08, 1.98, 18.27, 1.93, 1.61, 7.30, repro,
2015-08-16,-20.53, 2.44, 26.61, 1.92, 1.67, 7.23, repro,
2015-08-17,-20.24, 1.18, 19.41, 1.89, 1.57, 7.22, repro,
2015-08-18,-20.87, -0.54, 25.02, 1.95, 1.64, 7.38, repro,
2015-08-19,-20.73, 0.44, 22.27, 1.91, 1.60, 7.27, repro,
2015-08-20,-22.67, -1.36, 24.52, 1.88, 1.58, 7.21, repro,
2015-08-21,-20.73, 1.85, 24.65, 1.91, 1.57, 7.22, repro,
2015-08-22,-20.38, -0.40, 14.69, 1.89, 1.57, 7.18, repro,
2015-08-23,-19.06, 0.47, 22.24, 1.96, 1.65, 7.40, repro,
2015-08-24,-21.42, 1.12, 22.01, 1.89, 1.59, 7.19, repro,
2015-08-25,-20.26, 0.56, 23.45, 1.91, 1.63, 7.35, repro,
2015-08-26,-22.59, 2.86, 16.49, 1.93, 1.71, 7.31, repro,
2015-08-27,-21.91, 1.34, 18.94, 1.97, 1.78, 7.42, repro,
2015-08-28,-20.68, 1.66, 17.60, 1.93, 1.72, 7.30, repro,
2015-08-29,-19.35, 2.67, 18.16, 1.94, 1.69, 7.38, repro,
2015-08-30,-22.04, 1.55, 25.12, 1.90, 1.58, 7.23, repro,
2015-08-31,-19.92, -0.10, 25.87, 1.89, 1.57, 7.21, repro,
2015-09-01,-23.34, 1.53, 19.06, 1.96, 1.60, 7.39, repro,